Погода в Хоскинсе

Папуа-Новая Гвинея     5°29′02″S   150°22′06″E
темп.,
°C
ветер,
м/с
пор.,
м/с
влажн.,
%
обл.,
%
осадки,
мм/ч
давл.,
гПа
погр.,
м
10 августа, ср
ср1001:00+24ю239218 1.7 1010107
04:00+24ю229194 1.8 1009137
07:00+24ю2290100 0.0 1010151
10:00+29вюв126793 0.1 1010697
13:00+28юз0177100 1.8 1008562
16:00+28ююв2380100 7.8 1008327
19:00+25ююв358796 1.7 1010289
22:00+24ююв3490100 1.8 1012174
11 августа, чт
чт1101:00+24юв349086 0.0 1010270
04:00+24юв2290100 0.0 1010160
07:00+24ююв2290100 0.0 1011133
10:00+28всв0169100 0.0 1011601
13:00+29с4365100 0.0 1008871
16:00+27ссз227883 0.7 1007303
19:00+26ююз1184100 1.8 1009138
22:00+24ю2290100 2.6 1010103
12 августа, пт
пт1201:00+24ююв229040 1.9 1009107
04:00+24юв229082 3.4 1008107
07:00+24ююв1188100 1.0 1011188
10:00+27зюз118293 2.7 1011392
13:00+29ссз3369100 0.2 1008903
16:00+28ссз2276100 1.3 1008312
19:00+26ююз1184100 1.4 1010178
22:00+24ююв228969 2.3 101166
13 августа, сб
сб1301:00+24ююв228893 0.8 1010113
04:00+24ю219088 1.0 1010121
07:00+24ю229098 0.4 1011134
10:00+28ссз017435 2.0 1012395
13:00+28с227121 1.7 1010662
16:00+28ссз337867 4.3 1009419
19:00+26ююз118294 1.8 1010255
22:00+24ююв2288100 1.8 1012119
14 августа, вс
вс1401:00+24ю2291100 0.0 1010120
04:00+24ю218999 0.0 1010126
07:00+24ююв228957 0.1 1011132
10:00+28с116859 0.1 1011704
13:00+29с436740 0.1 1009919
16:00+29с336986 0.3 1008807
19:00+27ссв1176100 0.1 1009410
22:00+26вюв0180100 0.2 1011433